GFSWCAN_prec_cthk_096.txt.gz
RH
98 98 97 95 92 79 69 72 70 54 60 43 33 37 44 45 54 54 62 51 54 49 41 42 49 53 52 55 62 63 68 70 75 83 83 86 84 83 82 80 85 76 92 72 69 91 77 63 57 64 73 78 78 81
98 96 93 88 92 86 82 66 58 62 52 39 40 39 35 49 57 60 65 58 55 51 39 33 31 39 34 42 56 63 71 74 78 78 79 84 87 87 97 91 67 81 73 75 80 79 75 73 75 76 76 77 83 86
97 92 81 74 72 72 68 65 62 62 58 54 43 38 35 50 55 60 69 63 58 51 37 36 51 44 36 31 38 58 68 63 73 73 75 83 97 85 95 87 81 71 65 70 71 74 74 77 79 80 81 81 87 91
97 92 83 72 70 68 65 63 61 53 64 61 46 38 39 49 54 60 67 69 66 57 44 66 41 48 38 30 33 37 45 56 65 78 76 84 95 81 86 85 72 67 65 68 70 75 78 82 83 83 84 85 90 96
93 94 93 82 74 68 63 57 60 63 57 50 40 38 51 54 60 64 72 74 69 62 60 60 50 42 37 34 35 34 37 48 64 76 81 85 96 90 85 77 75 69 70 71 74 80 84 90 91 90 89 90 96 97
70 89 96 89 82 69 68 65 68 66 54 40 39 49 57 62 68 73 79 75 69 58 56 50 73 58 41 37 42 41 41 43 59 69 79 81 94 87 89 86 81 76 75 79 85 91 93 93 93 92 91 92 97 98
64 68 80 89 89 81 81 78 76 61 48 45 54 60 64 68 78 78 85 90 72 63 65 56 65 73 40 40 43 45 44 46 60 67 77 82 88 90 96 96 92 88 85 92 96 96 94 92 93 95 96 97 97 97
58 59 54 56 68 82 83 82 76 64 52 47 55 64 72 78 82 83 89 80 74 65 68 65 56 74 57 52 55 50 51 48 53 67 72 80 83 92 96 97 98 96 97 96 97 97 95 94 93 92 92 92 92 91
58 56 51 46 44 51 55 62 58 46 37 40 67 73 79 85 87 88 92 86 75 71 77 69 70 98 72 54 69 62 55 54 66 69 75 72 87 93 97 97 97 97 97 97 95 91 88 85 79 76 74 74 73 73
56 58 49 45 51 51 51 50 42 31 33 57 73 82 85 87 94 92 98 88 83 79 74 70 69 86 81 74 61 73 61 63 68 70 73 78 89 92 97 97 97 96 94 91 86 82 80 77 74 70 68 67 66 64
58 55 50 48 52 55 54 47 34 39 51 65 79 88 90 94 99 98 92 89 82 78 71 67 66 70 83 83 71 69 71 74 63 80 75 88 85 90 92 95 93 92 87 83 81 77 73 69 67 65 62 61 58 54
54 48 47 50 53 55 55 45 38 48 56 71 86 92 94 98 98 95 88 83 77 74 83 72 69 66 87 83 80 76 57 71 72 83 80 89 88 89 88 88 88 86 82 78 72 69 66 64 61 59 56 50 41 35
51 53 50 51 55 55 56 44 40 56 71 86 92 94 95 96 94 86 79 75 72 71 77 75 70 69 72 76 71 81 62 73 81 87 86 91 84 87 84 83 80 75 72 69 66 64 60 57 56 47 39 34 31 28
52 54 58 60 64 60 54 39 43 68 84 93 94 94 92 92 77 74 72 72 71 77 73 74 75 79 77 75 76 76 74 83 89 89 95 89 84 86 83 80 76 73 69 66 64 61 58 50 41 36 32 30 29 29
51 56 64 65 65 57 50 37 58 78 90 96 96 89 83 83 81 80 78 79 76 71 71 77 86 86 91 85 77 78 83 84 81 87 86 85 80 83 82 77 70 70 69 65 60 54 46 40 35 32 33 32 30 28
55 64 68 65 62 55 39 43 73 86 96 98 97 90 84 80 81 77 74 70 69 70 79 84 91 95 89 95 85 81 86 83 90 80 80 79 79 77 74 71 69 68 66 60 49 43 39 35 36 36 34 31 30 30
56 64 63 62 57 45 38 57 83 95 98 98 95 84 85 81 81 75 72 71 71 80 84 85 91 88 96 87 83 83 87 87 85 83 82 80 77 73 72 71 69 68 59 49 43 40 38 39 38 37 36 34 32 33
61 65 61 54 46 47 48 71 94 96 96 94 87 81 78 80 79 74 70 69 73 84 82 88 90 91 93 96 90 84 83 84 83 83 82 79 76 74 72 71 71 61 52 45 40 40 41 40 40 46 44 42 38 44
64 63 58 47 47 56 70 86 95 96 93 88 85 82 79 76 75 72 69 67 68 78 81 85 84 80 87 92 87 85 88 82 80 77 77 78 76 74 73 73 62 49 44 42 43 43 40 41 46 44 42 42 44 47
56 57 51 51 57 79 91 94 94 90 85 83 81 81 79 78 77 73 71 71 72 77 80 76 75 80 83 79 77 79 81 81 81 77 77 81 80 78 75 56 47 47 46 45 43 44 45 42 41 42 43 41 38 42
63 60 64 62 83 96 97 92 89 86 83 82 80 80 79 78 78 77 78 76 75 77 75 75 73 71 69 69 73 76 78 78 78 74 75 78 77 69 51 48 48 46 44 44 45 43 43 47 48 45 45 45 44 43
98 97 92 83 92 98 96 86 84 81 82 82 82 80 79 78 74 74 76 74 67 71 74 75 70 65 66 71 75 75 79 81 78 80 76 74 67 51 49 48 45 46 46 45 46 49 48 48 45 46 47 47 46 45
98 99 99 98 98 97 95 93 90 89 88 83 84 83 79 76 74 72 71 64 63 68 71 69 68 68 71 73 77 79 80 75 75 79 77 69 56 51 49 46 45 45 45 46 46 44 44 45 46 45 48 49 48 45
98 98 98 98 97 98 95 93 86 87 85 85 81 77 75 74 72 73 67 62 62 71 70 70 70 72 72 76 80 80 74 74 79 77 66 54 51 50 46 44 43 44 44 45 41 41 42 45 49 53 52 51 47 42
97 98 98 93 90 91 89 90 90 88 83 79 78 82 84 83 82 77 69 70 73 70 68 69 71 72 75 76 75 74 75 78 79 65 53 50 50 46 43 41 37 36 34 34 38 42 45 48 51 54 53 48 44 40
97 95 89 85 91 90 88 89 88 85 84 84 84 85 86 86 88 82 75 72 68 68 67 69 71 72 73 72 74 76 78 81 75 57 52 50 46 40 36 33 33 32 30 34 40 43 46 52 52 49 44 44 41 35
94 90 81 83 84 82 85 82 81 81 82 80 82 84 87 90 85 80 74 69 66 63 63 65 68 69 69 72 77 78 80 82 74 55 48 44 40 36 34 32 35 35 31 29 29 33 43 51 50 46 42 42 39 38
93 94 92 87 82 80 82 81 82 82 81 81 83 85 84 81 75 69 67 64 61 60 62 65 68 69 70 74 78 79 77 72 64 51 43 38 32 28 25 26 27 25 24 25 29 38 45 47 45 41 39 37 34 35
94 94 93 94 91 85 79 76 75 74 76 78 80 76 70 66 64 63 60 60 60 60 62 64 70 76 79 81 80 73 68 65 55 46 39 32 26 23 23 23 22 23 24 28 37 44 46 44 41 38 36 34 34 37
92 96 95 95 91 84 79 76 74 73 71 72 69 65 63 61 58 57 57 58 59 65 67 69 76 81 82 81 77 73 67 61 55 45 39 32 28 24 24 24 24 24 29 38 44 47 46 43 39 38 39 39 41 39
91 95 95 95 91 88 84 78 75 72 71 69 66 62 62 59 57 56 58 59 63 71 74 77 79 82 82 82 82 81 75 63 52 44 37 32 29 26 26 26 26 31 38 44 49 46 43 39 37 35 37 37 36 38
94 94 90 90 90 88 85 81 76 71 69 66 64 63 62 62 60 60 60 63 71 76 77 79 79 78 82 88 88 82 76 67 56 44 38 33 30 28 27 28 35 41 48 50 45 42 39 36 35 35 35 35 37 46
96 95 92 88 83 80 79 78 76 74 71 70 69 68 67 66 65 67 70 72 76 80 82 79 68 66 70 78 81 79 75 66 53 43 37 33 30 29 34 40 47 50 48 44 41 38 36 35 34 34 34 44 55 61

GFSWCAN_prec_cthk_099.txt.gz
RH
99 99 98 98 97 91 83 69 58 67 69 50 57 48 34 47 49 50 55 42 42 41 40 44 39 40 40 47 55 55 62 61 66 77 86 92 98 97 98 85 92 90 95 93 90 85 78 66 56 61 69 70 72 74
98 98 98 98 97 90 85 85 72 74 56 55 50 37 45 52 49 53 57 47 46 41 35 37 32 34 27 36 45 60 68 61 66 74 80 91 98 96 96 95 84 87 87 80 85 85 77 71 68 68 67 69 73 77
98 98 97 96 94 88 77 64 69 76 64 59 44 35 48 51 54 57 60 52 47 47 43 40 42 39 33 29 33 50 59 52 63 74 80 86 94 91 95 90 81 72 70 70 69 70 70 69 69 71 72 74 80 85
98 98 95 92 88 89 79 77 73 65 69 53 40 41 46 49 55 56 57 56 54 53 50 53 44 47 42 31 26 33 38 43 56 67 74 81 91 85 93 86 76 71 67 67 69 70 73 76 77 79 81 83 87 88
98 95 87 81 79 77 78 68 64 74 69 63 56 49 39 44 53 54 58 60 60 60 52 47 48 41 39 32 32 32 32 36 46 56 71 79 88 82 81 79 78 70 71 72 73 76 78 82 86 88 90 90 93 93
98 95 94 85 75 79 78 65 69 72 59 63 55 44 44 56 56 58 65 64 65 58 47 42 52 52 44 36 38 37 34 38 40 57 71 76 85 78 79 83 79 73 72 73 76 80 82 87 90 93 95 95 97 97
89 93 96 94 79 70 72 65 63 65 63 54 44 44 62 61 63 68 71 79 66 55 53 51 51 71 51 44 46 42 38 34 40 53 68 78 78 79 92 90 83 79 79 79 83 88 92 95 95 96 97 96 97 97
75 82 90 95 94 85 77 74 74 77 64 49 48 68 69 61 68 75 76 73 68 56 59 59 57 77 66 54 51 53 46 44 37 55 68 76 78 85 94 95 94 93 90 90 92 95 94 92 94 94 95 94 92 88
63 71 74 85 90 91 91 92 83 63 47 54 67 77 64 69 74 75 76 78 70 65 66 63 74 95 79 61 65 65 54 49 51 69 73 75 89 92 97 97 97 97 97 96 96 93 88 86 81 79 76 75 72 70
60 61 60 61 69 89 95 88 82 70 60 60 80 70 73 76 79 80 85 82 76 70 66 64 67 80 87 78 65 73 65 65 75 70 73 82 92 94 97 97 97 97 96 92 86 86 83 78 76 71 69 66 63 59
62 58 53 50 53 63 67 69 62 53 57 69 75 78 83 88 87 85 87 84 75 71 66 64 63 69 81 89 74 83 80 77 71 80 80 95 92 93 97 97 96 93 91 87 83 78 75 70 66 63 61 57 52 42
62 56 54 49 54 57 57 50 47 48 53 64 73 83 88 92 89 84 84 80 75 69 74 72 67 65 71 89 82 83 58 76 79 87 86 96 93 92 92 91 93 92 86 81 76 72 68 64 60 56 47 37 31 27
60 54 53 51 55 63 58 46 46 51 57 72 83 85 86 89 86 79 83 78 73 67 76 74 71 65 66 82 74 78 62 68 82 88 90 93 87 88 86 85 84 81 79 73 68 65 61 57 46 38 33 29 27 26
60 50 52 52 60 65 60 47 47 58 72 82 85 86 84 85 75 78 80 73 68 68 70 66 67 70 70 71 74 75 70 74 88 93 95 89 85 87 85 84 78 74 72 70 66 61 53 41 37 33 30 28 28 26
60 60 57 59 64 65 64 48 50 65 77 86 87 87 77 81 79 85 84 81 76 72 64 67 76 85 86 81 75 75 78 79 84 90 88 87 81 83 85 82 74 74 70 65 59 47 41 36 33 31 31 29 26 25
61 67 66 63 66 66 61 49 57 72 81 89 88 87 80 80 86 84 81 79 72 66 65 77 87 92 91 89 87 80 86 86 89 83 80 79 77 78 78 75 71 68 66 61 46 41 36 34 33 33 31 29 28 29
58 64 67 70 69 63 55 46 67 75 84 90 89 89 89 83 81 80 78 73 70 71 73 77 81 83 95 90 86 81 91 89 89 84 79 80 80 78 75 72 70 66 63 48 39 37 35 36 35 32 31 32 32 37
62 66 70 71 67 63 55 53 75 78 81 86 88 84 88 86 85 81 81 74 71 71 73 82 87 91 90 93 88 86 87 88 85 81 79 80 79 76 73 69 67 67 52 42 39 37 37 35 35 36 36 37 39 41
65 70 72 68 64 57 48 55 73 80 81 85 89 88 87 85 84 82 77 73 67 66 72 81 83 81 82 89 93 86 89 83 83 81 77 76 79 76 71 70 70 59 45 42 39 38 37 37 37 39 42 41 42 43
71 73 67 64 59 60 61 65 69 81 85 85 87 89 87 86 84 79 76 70 66 68 64 69 72 77 78 81 82 79 77 79 78 78 79 76 78 78 74 74 67 48 43 41 41 40 38 36 37 40 40 40 40 41
73 73 66 62 69 67 72 75 73 78 86 87 87 87 86 85 83 81 80 74 73 70 63 65 71 72 71 72 74 72 73 73 74 75 76 73 76 80 77 72 49 44 43 42 40 39 39 43 45 42 41 38 42 44
75 72 71 67 66 66 73 77 82 80 83 83 85 83 82 81 77 76 77 74 65 60 58 62 68 69 66 65 65 66 68 72 75 76 76 75 75 76 69 51 46 46 45 42 40 41 44 42 40 40 39 37 41 42
61 62 67 61 70 78 91 94 94 87 86 86 86 87 84 83 79 76 74 62 54 57 59 60 66 66 64 61 60 62 71 75 77 76 74 77 76 73 60 48 48 48 47 44 41 43 42 40 39 39 37 37 43 46
95 91 91 79 74 89 91 96 92 88 83 82 85 86 84 83 78 75 68 55 55 57 57 62 63 65 64 63 68 73 76 81 80 74 73 77 76 65 53 51 50 47 43 41 39 39 38 36 34 33 35 42 48 50
99 98 98 94 84 82 88 91 91 89 87 86 87 81 80 80 80 74 65 58 60 61 60 60 63 64 67 70 71 73 77 77 73 73 80 79 66 54 50 50 46 42 38 35 35 35 32 31 32 35 37 42 45 48
98 95 92 87 89 85 87 88 88 88 87 87 84 78 76 80 81 74 63 64 71 66 67 66 67 67 69 71 74 76 76 76 74 77 84 75 56 48 46 43 39 34 28 27 31 33 31 31 33 37 38 42 46 47
92 92 86 85 89 86 86 84 86 88 87 86 85 85 85 83 77 70 67 74 73 70 67 66 66 66 69 72 73 74 76 78 79 82 84 78 58 49 42 36 28 26 28 29 26 26 26 28 31 35 41 47 48 45
89 89 90 92 88 88 91 91 90 89 87 82 82 81 76 74 75 76 81 78 75 69 65 64 64 64 67 72 73 73 77 82 83 84 81 76 63 48 41 33 30 30 27 24 24 25 27 30 35 41 47 46 42 39
93 95 93 96 94 88 84 84 82 80 80 83 85 83 80 80 81 82 80 77 72 66 65 63 64 68 70 74 74 77 79 85 85 79 70 61 52 45 38 31 27 25 26 27 27 29 33 38 45 49 46 42 39 36
95 97 97 97 97 96 93 86 83 82 81 82 84 84 82 81 79 75 74 70 67 64 63 64 68 70 71 77 83 87 90 89 83 73 61 51 43 36 30 27 27 29 29 30 31 34 38 48 49 44 40 38 34 32
96 97 97 97 97 97 96 90 84 78 76 79 79 78 78 73 70 69 68 65 63 61 62 64 71 73 75 82 86 87 89 88 84 78 71 61 50 40 36 35 34 32 33 34 34 38 47 47 43 39 36 33 33 39
96 96 94 96 97 97 95 92 88 84 81 78 76 74 71 68 66 64 63 62 60 60 63 67 76 82 85 86 85 85 87 86 83 79 72 61 52 47 42 37 35 35 36 35 40 48 45 43 38 34 32 38 44 43
97 97 95 95 93 95 94 91 88 84 81 78 74 71 70 67 66 62 63 63 62 64 67 75 80 82 86 89 84 76 74 72 74 69 61 54 49 43 38 36 37 36 36 42 47 45 41 36 33 36 43 43 37 34

GFSWCAN_prec_cthk_102.txt.gz
RH
98 97 95 94 87 79 76 68 59 62 45 43 44 50 43 38 46 53 41 38 32 39 42 42 38 31 32 37 49 50 55 58 67 74 88 93 97 97 91 89 93 94 97 92 85 82 83 75 64 69 75 77 77 77
99 98 98 95 91 88 81 73 64 55 53 59 54 47 41 40 54 48 47 40 34 31 31 35 30 28 24 28 42 50 53 53 66 74 87 92 95 96 94 91 84 90 94 92 91 86 78 74 72 73 73 74 78 78
98 98 98 98 97 93 91 75 58 63 67 52 51 49 40 48 53 48 53 43 37 38 34 41 40 37 32 30 30 44 45 45 60 69 82 89 95 95 97 91 80 84 84 82 79 73 71 72 71 72 73 76 80 81
98 98 96 96 96 91 86 81 67 74 65 52 50 44 45 53 49 57 54 43 41 42 45 41 38 40 35 32 29 29 31 38 49 62 75 83 90 90 94 89 78 74 70 68 68 71 72 72 74 74 76 78 79 83
98 96 94 95 97 91 85 83 73 81 63 59 46 40 42 53 52 56 54 47 46 46 44 42 40 40 42 39 32 32 30 34 38 48 69 79 87 84 87 81 77 73 71 70 67 71 73 77 78 79 80 81 84 87
97 93 86 86 88 88 77 72 83 72 70 57 47 41 44 48 51 55 54 53 51 46 38 45 44 46 45 40 39 40 38 36 37 44 68 77 83 79 82 80 75 69 67 67 70 73 76 80 79 81 84 86 87 89
96 93 87 82 80 87 89 83 73 79 74 55 51 48 52 52 58 59 59 62 55 45 42 45 52 57 48 45 44 45 43 39 38 39 67 76 78 78 82 80 75 72 71 70 72 73 78 79 84 86 88 93 93 95
96 96 93 87 82 88 83 76 75 78 57 47 53 59 57 62 68 64 66 63 57 45 51 49 64 65 56 46 47 50 48 45 39 37 64 78 81 77 84 83 79 77 75 75 76 76 77 87 88 92 92 93 89 85
87 91 93 94 82 76 77 76 73 63 52 58 63 60 70 70 69 67 66 65 60 56 56 54 65 84 69 59 59 57 50 47 45 55 72 77 85 89 86 87 87 84 83 79 79 83 87 89 86 81 74 72 70 66
76 80 86 94 94 89 84 79 68 62 63 67 66 76 78 69 70 71 72 71 67 61 58 62 67 77 82 68 61 67 60 58 62 70 74 83 90 93 93 94 94 95 95 94 93 89 89 82 74 71 66 62 58 54
67 65 70 83 93 95 96 92 79 60 59 69 83 85 78 75 77 77 76 74 67 64 58 57 58 66 78 80 70 78 73 67 72 79 82 92 95 94 94 96 97 97 93 89 86 82 81 70 66 60 57 53 43 32
58 56 53 59 76 95 97 88 79 69 70 84 88 88 85 81 83 79 74 73 70 65 67 66 63 62 69 79 80 78 63 69 75 86 86 95 96 96 96 97 97 96 88 84 81 76 70 63 59 53 40 34 29 27
57 52 49 48 58 75 76 71 66 65 73 87 90 88 83 82 83 76 79 74 69 65 70 69 68 66 68 72 77 76 64 67 79 86 84 91 92 92 88 88 90 89 83 77 73 68 63 57 44 38 34 30 28 26
61 53 51 50 58 60 59 56 58 60 72 82 85 82 82 77 73 72 74 68 63 66 67 66 64 66 65 66 72 71 70 68 79 86 85 87 88 88 85 84 81 78 73 72 68 62 52 38 35 32 30 28 27 27
61 50 51 54 62 59 54 52 57 61 69 81 81 80 74 76 75 79 82 76 69 70 69 66 71 75 79 76 71 73 79 69 79 84 88 85 83 87 85 85 77 73 71 67 61 48 38 34 32 30 30 30 28 28
57 56 54 57 63 61 56 50 57 66 74 82 81 78 74 75 83 85 80 79 74 73 66 70 79 85 87 86 82 75 79 78 83 81 78 76 77 76 80 82 76 70 67 63 52 41 35 32 32 32 29 28 28 29
62 59 57 62 65 64 59 52 61 70 83 84 82 75 77 79 84 82 77 77 73 70 70 74 77 82 90 88 90 75 84 90 88 82 78 77 76 76 77 76 73 69 66 58 43 38 35 34 32 30 28 27 30 37
65 65 65 67 67 64 58 53 68 76 79 81 83 75 80 80 81 80 78 77 74 74 70 75 82 87 85 95 87 85 88 87 84 81 79 78 78 79 78 75 71 68 65 52 44 38 36 34 31 30 31 32 37 39
63 69 72 71 68 61 51 52 71 73 75 82 86 81 85 85 82 81 80 75 74 74 66 73 79 77 79 86 88 83 84 82 82 80 79 76 76 77 76 74 70 67 62 49 42 38 36 35 34 34 35 36 37 39
64 69 73 71 69 63 52 56 67 73 78 81 85 86 89 88 86 84 80 75 75 70 64 64 64 67 69 75 79 81 77 79 78 77 77 76 77 77 77 72 70 70 58 45 41 39 37 36 35 35 38 39 38 37
72 74 74 74 72 66 69 61 62 69 78 77 80 88 91 88 86 85 80 75 74 67 61 57 59 64 67 68 67 74 76 74 73 72 73 77 77 75 79 80 77 70 50 43 42 40 39 36 34 38 41 41 37 33
72 74 73 73 70 70 76 69 62 60 66 78 84 85 90 89 83 80 77 74 68 61 61 58 55 60 64 63 64 65 68 70 70 71 72 75 78 75 77 81 75 54 45 45 44 41 38 36 38 41 41 38 33 31
73 72 69 67 70 70 78 73 68 62 63 71 81 88 86 83 78 76 75 67 61 59 56 55 57 56 59 61 61 61 62 60 63 71 73 75 76 78 80 77 67 49 48 48 46 42 39 38 38 39 38 35 32 33
78 74 69 61 62 68 73 76 81 89 84 86 82 83 82 83 81 78 73 61 56 54 53 52 53 56 59 61 61 60 62 65 72 76 79 78 75 78 78 77 63 52 50 49 46 42 40 38 37 37 33 31 32 36
70 65 78 76 63 69 86 94 97 98 96 91 88 84 82 79 79 74 63 54 55 57 57 57 56 58 59 60 63 64 70 74 74 75 79 76 76 80 80 70 55 51 49 47 44 40 36 32 32 31 32 34 35 37
95 92 84 91 85 71 68 82 91 97 94 92 88 83 81 84 77 67 54 53 58 58 59 61 62 63 65 66 66 73 76 77 79 78 78 77 79 81 72 58 50 47 44 41 38 34 30 29 30 34 37 35 35 35
89 91 88 84 85 82 82 77 77 90 91 88 88 88 84 81 70 58 57 63 66 65 65 67 67 67 67 69 72 73 78 80 79 78 78 80 85 87 81 66 51 43 37 33 29 27 28 30 34 36 35 36 36 43
86 90 91 89 86 85 87 85 83 78 77 76 80 81 80 74 66 67 71 75 74 72 73 73 71 66 67 69 70 72 76 77 76 79 83 86 87 86 79 68 53 40 37 33 28 26 27 31 34 37 37 37 43 46
88 87 88 88 90 91 92 89 85 86 88 87 84 83 80 77 78 77 79 80 80 76 75 72 70 68 68 70 71 72 75 77 78 81 85 88 85 75 63 55 44 39 35 30 29 30 34 37 39 38 39 43 45 40
89 92 93 95 94 93 90 91 90 87 87 86 83 82 83 85 82 81 82 82 81 77 74 72 69 69 70 71 72 74 78 82 86 90 91 86 80 72 64 55 47 40 38 38 38 39 41 40 37 39 43 43 39 40
97 97 97 97 96 96 97 97 95 93 89 84 84 86 86 87 86 84 81 80 79 76 74 71 69 70 70 73 75 76 81 88 92 92 89 82 76 70 63 58 55 50 45 42 42 42 37 37 40 43 42 41 43 42
98 97 97 97 97 97 97 97 97 95 92 87 85 84 83 84 83 80 77 76 74 71 69 67 68 69 72 76 81 84 88 90 91 88 82 77 71 64 61 56 52 45 44 44 39 36 38 41 43 42 45 44 38 29
98 98 98 97 97 97 97 98 98 96 91 89 87 84 83 80 76 73 71 70 69 67 67 67 68 69 71 79 86 90 92 94 91 77 66 60 58 56 51 47 44 45 39 36 38 40 42 43 46 46 41 33 27 24

GFSWCAN_prec_cthk_105.txt.gz
RH
98 98 98 94 88 83 88 87 79 62 48 50 48 47 42 38 34 40 37 44 48 42 43 41 37 30 29 33 44 46 53 58 67 80 87 88 88 87 92 86 96 92 95 88 80 80 80 78 78 71 76 78 77 77
97 97 90 86 88 81 81 85 66 51 52 44 45 46 49 46 42 47 40 43 41 36 39 39 31 23 22 29 42 43 44 56 66 77 88 89 92 88 85 87 83 88 89 86 85 84 84 75 74 75 75 75 77 78
97 95 91 90 84 85 79 63 59 60 48 39 43 51 45 39 51 53 41 39 31 30 35 37 34 30 27 26 31 41 38 48 61 69 82 88 89 90 88 87 82 87 87 83 82 72 70 70 71 73 73 74 78 78
98 97 96 93 89 80 71 68 68 52 55 49 50 52 43 46 55 54 44 39 33 33 43 42 40 36 31 26 24 28 29 37 50 63 74 82 88 89 92 85 81 83 82 81 73 67 68 70 72 75 77 78 79 82
99 98 98 96 93 90 86 68 65 62 58 57 59 56 47 53 59 52 47 40 35 35 40 39 41 40 39 29 26 29 30 34 38 54 70 79 83 85 87 83 81 79 78 72 66 64 69 72 75 76 77 78 80 84
97 97 96 97 94 93 84 72 70 71 57 53 57 49 51 57 61 55 50 43 38 37 35 48 44 43 41 36 32 34 35 36 37 44 67 76 84 80 89 89 81 72 70 66 69 70 72 75 77 76 76 79 84 86
93 92 90 90 96 93 91 86 75 82 65 61 47 42 46 59 58 58 52 46 44 34 34 44 49 47 41 42 44 42 41 40 38 38 59 74 78 77 82 85 79 74 71 70 72 72 76 76 77 78 81 85 89 89
88 83 84 89 95 85 81 84 87 78 71 57 46 49 60 63 62 62 54 51 44 37 37 46 58 55 49 44 47 47 47 45 42 37 51 72 78 76 81 79 79 77 72 72 75 76 74 79 81 85 88 88 88 83
93 89 86 88 95 93 90 88 74 71 65 53 58 64 70 69 67 63 56 54 46 44 41 50 60 71 59 53 52 55 52 52 48 49 59 79 83 86 82 81 79 77 76 78 77 76 78 80 82 84 83 77 70 66
92 92 92 89 89 85 84 79 76 72 63 59 71 71 66 72 70 63 61 57 52 50 46 54 68 71 71 63 63 64 59 59 55 57 72 81 89 93 89 87 84 83 80 81 82 78 76 80 78 73 69 63 57 48
84 88 93 92 85 83 79 79 72 64 62 71 76 72 76 78 71 66 65 61 55 52 49 57 57 72 75 67 66 72 67 63 61 73 82 89 95 94 96 96 96 96 92 88 85 84 83 77 70 64 57 50 40 30
77 76 90 96 94 90 84 67 64 70 76 79 77 84 86 80 73 68 66 63 60 60 59 56 55 57 67 76 71 72 65 62 68 82 86 92 96 96 97 97 98 97 91 90 87 85 80 70 60 53 42 31 28 26
68 64 74 92 98 98 95 86 72 72 78 87 92 90 83 77 72 68 68 63 66 61 62 63 63 63 65 67 72 73 63 61 75 78 82 87 94 94 94 97 97 95 88 84 80 74 65 58 49 36 33 29 27 26
54 53 53 70 94 98 94 88 80 77 89 95 91 87 84 71 69 70 67 62 64 66 64 64 61 62 63 63 70 68 64 63 75 78 82 87 90 89 87 88 90 87 82 77 71 65 58 41 34 31 29 28 29 27
52 50 50 60 73 90 87 79 74 81 90 92 89 83 78 73 73 72 72 69 70 70 66 64 66 67 70 68 64 66 74 66 69 76 82 84 84 86 85 85 80 77 73 70 64 55 41 33 30 30 29 29 27 27
54 52 57 61 61 58 62 67 67 78 84 86 79 78 75 74 75 76 75 76 71 69 67 65 71 76 79 80 80 70 76 69 70 83 77 76 79 79 83 84 81 73 71 65 59 44 36 32 30 30 29 27 26 27
51 49 55 61 59 55 52 54 60 70 77 75 74 77 78 78 77 78 78 76 72 72 72 70 71 80 88 86 89 76 73 77 82 79 74 73 74 73 75 79 80 75 69 65 53 41 37 32 32 30 29 26 26 31
55 53 55 64 61 59 53 51 61 73 77 76 74 73 76 79 81 79 79 77 74 73 74 71 76 85 85 95 86 74 80 81 84 78 74 72 73 75 75 74 74 72 69 64 53 43 37 34 34 31 29 27 30 32
58 58 63 66 63 57 49 50 64 70 76 82 78 75 72 79 76 75 76 75 76 76 72 70 77 79 77 81 86 79 82 81 80 78 77 77 74 74 74 75 74 72 70 66 54 44 38 37 35 33 32 30 31 33
66 67 69 69 63 58 49 50 59 68 76 80 78 76 79 80 79 78 79 77 76 71 70 61 64 66 67 69 79 79 76 78 80 79 78 76 76 76 75 76 75 73 71 69 57 45 42 39 37 35 33 33 33 35
70 73 73 73 67 63 61 56 61 66 69 75 83 80 83 85 85 84 81 76 74 71 64 53 56 60 63 67 68 67 72 75 76 74 71 71 74 78 76 76 79 76 74 72 56 47 44 41 38 34 35 36 34 34
74 74 72 70 69 67 68 59 65 66 68 69 81 83 84 89 89 84 79 73 66 62 59 57 57 55 59 65 64 67 67 69 73 73 70 68 71 76 79 76 79 81 80 73 54 47 46 44 39 38 38 36 33 33
73 72 69 68 67 68 74 68 62 59 66 73 76 82 83 87 85 82 73 65 60 59 59 59 57 55 55 56 60 61 64 66 66 65 64 65 73 76 78 80 80 82 81 64 51 50 48 45 42 41 40 36 33 32
72 72 68 65 62 68 73 75 70 67 58 60 67 74 77 81 81 77 69 61 58 60 58 57 54 53 52 53 58 60 61 64 65 64 63 69 76 78 79 79 82 83 81 69 55 51 47 43 42 41 37 34 30 31
76 72 68 65 62 69 74 73 70 69 68 64 64 71 75 77 79 74 63 56 58 57 56 56 57 56 55 57 59 60 62 64 66 66 69 74 74 78 78 80 82 83 78 66 55 49 44 41 40 38 33 31 30 33
74 64 67 76 66 53 58 74 85 92 94 96 93 88 85 82 78 67 57 57 61 60 57 58 59 60 62 61 62 64 66 68 71 73 76 76 78 77 78 81 84 79 69 59 49 43 41 40 37 35 33 33 34 39
84 93 90 87 88 81 70 67 78 86 93 97 95 92 91 87 72 61 60 59 58 61 62 62 63 67 66 66 69 71 72 72 76 79 80 82 81 81 81 82 82 79 73 64 54 46 41 38 37 36 35 36 42 44
89 85 90 97 98 93 91 90 89 83 80 78 82 86 83 75 68 68 68 68 68 68 71 70 71 73 74 73 72 71 73 76 79 80 81 81 83 85 87 87 84 79 68 53 45 41 35 34 35 38 44 45 42 38
87 88 88 93 98 97 95 92 86 83 82 81 79 78 73 71 72 72 73 74 75 77 79 76 76 77 77 74 73 73 74 75 76 78 80 80 82 85 90 86 77 62 54 48 42 42 44 46 47 48 44 40 36 37
85 85 85 86 90 92 91 92 94 91 89 86 85 84 84 81 78 77 77 77 79 79 78 76 78 81 78 75 74 75 76 77 76 78 82 86 90 91 87 83 74 66 60 54 51 51 49 50 47 40 37 36 40 48
93 94 93 93 92 92 94 95 96 96 97 94 92 90 87 85 83 81 81 83 84 82 83 81 82 82 80 78 76 76 77 78 80 83 87 92 94 91 85 78 71 61 54 51 51 48 49 43 37 36 38 46 49 44
98 98 97 97 97 96 97 98 95 93 93 93 93 89 86 85 82 81 83 87 86 85 83 82 82 81 78 75 74 73 76 82 87 90 93 90 87 85 71 59 54 50 47 45 46 44 38 36 37 44 50 48 39 32
98 98 98 96 96 95 96 98 98 97 95 94 92 91 88 84 80 79 82 84 85 84 81 81 79 77 74 71 72 74 78 86 90 93 91 88 82 76 59 52 47 45 46 47 41 39 39 43 50 50 44 37 31 27

GFSWCAN_prec_cthk_108.txt.gz
RH
98 97 97 98 97 97 94 87 80 71 67 68 68 57 55 51 44 50 52 44 44 47 50 41 36 35 32 34 40 41 46 49 69 76 79 86 88 87 89 92 96 95 97 95 88 86 83 81 79 79 77 76 77 77
97 97 98 94 92 91 81 77 67 68 67 59 60 53 46 48 48 37 40 43 45 44 44 38 32 23 25 30 38 43 43 51 62 78 79 85 85 81 81 88 88 93 92 88 87 85 80 79 78 75 73 75 76 76
97 97 94 96 96 92 87 84 69 54 57 58 52 48 40 35 34 39 40 48 50 45 41 39 32 25 25 35 38 34 40 48 57 72 82 83 83 87 79 82 85 93 90 84 83 81 79 73 71 72 72 73 75 76
96 97 97 96 93 90 79 60 58 62 51 46 42 40 49 47 44 47 41 44 40 35 41 44 35 30 27 25 27 28 33 41 48 60 72 84 82 86 85 82 81 85 86 83 82 71 68 68 69 70 72 73 74 77
96 95 93 94 88 76 67 64 59 48 45 42 46 51 41 44 51 49 42 43 33 28 38 43 41 35 31 25 26 27 29 32 40 52 64 78 83 83 84 80 79 79 80 82 79 63 64 68 70 71 71 74 76 79
98 97 91 90 85 73 75 68 53 54 44 50 54 54 46 53 59 45 44 42 33 35 36 45 44 39 34 32 31 32 33 32 34 46 65 74 80 77 84 85 82 77 76 76 70 66 66 70 71 71 74 76 78 80
98 98 96 94 91 81 76 68 65 56 53 58 64 60 54 58 60 50 51 45 39 36 35 46 47 44 39 39 39 36 37 37 36 37 51 69 75 76 80 84 84 78 70 66 69 69 70 71 74 75 76 78 81 84
96 93 92 94 96 88 75 75 73 60 57 60 54 52 57 60 64 59 55 45 39 31 31 46 50 48 43 42 42 42 42 43 41 38 43 59 71 74 81 81 84 79 72 69 71 71 68 72 76 79 79 83 85 81
86 84 88 96 94 92 89 77 83 71 61 59 50 56 61 65 67 64 57 48 39 31 35 46 54 53 54 49 46 47 47 48 47 47 49 59 73 79 80 81 79 80 78 76 76 73 72 74 79 82 82 80 75 70
85 83 93 95 88 91 92 85 77 77 68 65 64 64 71 77 72 66 58 48 41 39 37 53 59 63 62 59 60 60 56 57 56 56 55 64 77 85 85 82 78 75 76 77 77 75 74 75 75 77 74 71 62 47
91 92 90 95 93 91 89 73 77 79 70 67 70 76 77 74 72 66 59 52 47 45 45 54 62 66 67 64 65 70 67 64 61 61 65 79 84 90 92 89 84 81 79 77 73 73 71 71 71 70 66 55 42 32
85 90 93 90 89 89 80 79 82 76 69 72 77 80 78 80 73 66 62 56 54 52 51 55 56 62 72 72 71 69 64 61 60 69 80 83 91 95 96 96 95 93 89 86 84 79 75 74 70 63 50 36 31 28
82 91 95 90 87 82 74 80 72 69 74 81 82 82 82 81 73 66 62 58 60 55 54 54 55 59 62 69 72 72 64 60 61 75 78 83 95 98 97 97 97 96 93 93 90 84 80 73 64 46 34 32 29 26
74 84 98 98 94 88 69 67 74 87 91 89 87 88 88 78 69 65 62 60 59 60 60 59 59 60 60 61 68 67 65 62 73 75 79 89 93 95 95 97 97 96 92 88 85 82 73 60 41 36 34 29 28 27
68 69 88 97 97 97 92 78 81 92 90 92 91 87 84 76 69 68 68 70 67 63 61 60 63 64 64 63 59 62 71 68 66 74 81 87 90 93 91 92 94 91 85 83 80 70 58 40 36 32 28 29 27 26
52 53 68 89 98 95 92 85 82 90 92 95 92 88 86 78 74 74 72 69 67 63 63 62 67 71 72 70 68 67 69 70 66 76 79 82 88 88 89 90 88 83 81 78 69 60 42 37 32 29 29 28 26 24
50 55 61 64 78 88 88 81 84 91 94 95 90 90 85 81 78 75 73 70 68 68 68 67 68 72 79 77 78 77 70 74 76 79 76 77 79 80 81 84 87 83 77 72 66 52 39 34 31 31 30 27 25 27
51 58 62 60 58 61 66 67 73 78 86 83 85 88 84 79 76 75 74 72 70 70 70 70 68 70 76 84 84 74 75 83 82 82 80 78 78 79 78 79 80 81 79 74 69 54 41 37 34 33 31 27 26 29
52 54 62 62 56 52 49 50 61 70 73 73 76 84 84 82 76 72 73 72 70 73 72 71 70 70 71 75 82 82 80 82 85 83 80 77 75 75 75 75 75 75 75 73 69 59 50 42 39 35 32 30 30 32
58 61 66 65 55 50 45 49 54 64 71 76 73 73 75 76 79 75 74 73 74 73 71 66 61 59 65 66 72 79 79 81 81 81 80 78 76 75 75 74 71 72 73 72 71 67 54 48 45 41 38 34 33 35
68 67 67 63 57 54 51 50 56 60 72 78 76 72 74 70 70 74 75 76 76 70 67 60 56 55 60 63 65 69 69 77 79 79 75 75 73 73 75 76 74 74 74 72 72 70 62 55 51 46 41 37 38 37
69 67 66 64 60 56 57 53 58 60 63 73 75 73 74 80 81 79 80 78 73 66 62 59 58 55 55 59 65 65 66 65 67 72 74 72 70 68 70 76 77 76 76 79 78 75 71 62 54 48 43 40 39 38
73 72 68 64 60 58 67 59 61 61 61 66 71 75 79 80 80 84 79 72 68 63 61 60 59 56 56 56 55 60 62 63 64 66 66 66 65 63 68 75 78 80 78 78 81 80 77 66 56 50 45 42 39 38
74 74 67 63 61 65 67 70 64 64 64 65 69 72 77 83 81 81 72 66 64 61 60 61 60 59 57 55 53 54 57 60 62 62 63 64 64 64 68 76 79 81 81 82 84 85 84 75 60 49 43 38 36 32
70 68 64 62 61 62 70 73 72 67 64 60 60 65 66 73 76 72 64 59 62 60 60 61 60 60 59 58 56 56 56 59 60 60 62 65 67 66 72 78 81 83 82 84 87 86 83 74 59 45 38 35 33 31
71 64 61 64 63 60 64 71 71 69 68 69 67 63 59 58 64 66 62 62 63 64 64 63 60 60 60 60 60 61 61 61 63 65 65 67 67 70 76 79 81 81 83 90 90 86 77 64 52 47 43 41 37 32
75 70 70 71 83 69 60 59 66 80 88 87 86 86 84 80 70 60 64 73 75 74 69 65 62 61 61 62 64 66 67 68 70 70 69 70 74 80 83 83 82 86 88 89 87 79 68 58 51 46 42 37 41 49
74 84 88 93 96 94 87 76 71 77 80 78 83 86 89 82 77 77 78 75 72 70 68 67 65 66 68 68 71 74 76 76 75 74 74 79 83 84 84 84 85 88 88 85 78 67 57 51 50 49 50 51 51 48
76 83 91 95 96 96 98 96 89 85 86 88 89 86 80 78 76 75 74 73 74 74 74 71 71 74 75 74 77 79 79 78 76 77 80 80 81 82 85 86 88 88 81 74 67 62 57 54 52 52 51 49 42 36
77 77 83 89 95 93 90 92 95 95 95 95 93 88 83 80 78 78 77 77 77 76 76 76 78 80 80 81 83 84 83 80 80 81 80 80 82 86 89 91 91 83 77 69 62 57 50 48 48 47 44 38 39 46
87 90 90 89 87 86 88 90 91 94 96 96 94 94 94 90 86 84 83 83 82 82 80 80 80 84 85 85 86 85 83 80 80 81 82 84 85 88 90 92 88 79 71 63 54 46 44 44 46 43 42 47 50 45
95 95 95 94 92 93 94 94 93 92 91 90 89 90 91 91 86 82 84 84 85 87 87 86 85 87 88 87 87 86 83 81 78 78 83 88 89 92 94 91 82 72 68 63 56 53 54 50 44 48 52 49 43 38
97 98 98 97 96 96 96 97 94 90 89 89 87 87 85 84 81 79 82 85 85 86 88 88 89 90 89 88 86 84 81 79 78 79 82 89 93 92 87 80 73 69 63 61 59 54 48 49 53 53 48 42 37 33

GFSWCAN_prec_cthk_114.txt.gz
RH
97 98 97 98 97 89 97 97 82 94 93 96 98 98 97 92 90 84 76 72 69 75 76 71 65 59 54 44 41 40 43 43 50 67 69 72 77 80 77 76 87 92 92 89 88 87 85 86 84 92 94 87 83 82
97 97 98 98 98 98 98 98 98 98 98 98 97 93 90 88 82 76 70 65 58 54 64 61 54 48 41 34 34 39 39 40 47 62 66 71 74 77 76 80 84 94 91 88 89 88 87 85 83 93 89 80 80 80
96 97 98 97 98 98 98 98 98 98 98 96 93 91 87 81 74 69 65 56 51 54 57 52 50 39 30 32 34 37 38 40 45 54 68 72 75 74 74 71 79 90 96 94 91 89 90 90 88 89 79 79 79 82
96 97 96 97 98 97 97 96 94 93 92 91 88 81 71 64 59 51 50 50 46 48 56 58 44 33 34 31 29 32 37 41 47 54 60 69 76 75 76 70 71 87 94 93 93 92 89 91 83 78 78 78 80 82
86 84 86 85 84 86 88 89 87 80 74 65 58 53 48 49 51 47 45 46 44 43 51 46 34 34 35 32 29 31 35 42 44 49 53 60 70 77 77 71 74 77 90 90 87 84 86 77 76 75 77 78 80 81
96 90 81 78 76 74 72 68 65 56 55 48 45 47 48 42 45 47 50 50 42 35 37 45 41 37 33 32 30 29 29 30 36 47 52 58 61 70 80 77 76 76 84 89 85 79 79 75 75 78 79 80 79 80
89 73 72 72 70 73 67 62 63 59 58 55 46 38 45 48 49 47 52 47 37 28 36 43 43 40 37 34 32 31 28 28 34 38 48 56 60 64 76 79 80 80 82 86 86 82 76 76 79 81 80 80 80 80
80 77 82 81 65 62 65 58 52 50 48 48 45 46 48 47 44 44 42 36 32 29 34 42 47 43 38 39 38 32 35 32 30 35 40 43 51 59 69 77 78 86 83 83 86 84 77 79 82 81 81 81 82 81
83 80 66 66 67 57 52 50 54 58 57 52 52 53 51 47 46 50 44 36 30 28 36 39 43 50 39 39 40 38 35 38 34 39 41 42 44 55 68 74 77 83 89 87 90 89 82 81 82 81 82 82 82 76
91 85 75 61 57 55 52 55 67 68 59 51 50 55 61 57 51 49 44 35 27 32 39 42 41 43 43 42 43 43 41 41 47 49 45 45 43 47 65 71 78 82 92 86 88 87 83 83 81 82 84 84 77 64
96 92 85 74 66 54 52 56 62 65 63 62 61 66 63 59 54 53 47 42 34 39 44 48 46 46 45 49 48 52 50 46 47 56 50 51 49 55 72 76 80 84 92 90 87 83 84 82 81 84 87 83 69 52
95 95 89 79 77 72 64 66 68 68 60 57 57 60 62 62 58 54 53 46 40 46 52 54 53 54 56 57 60 57 53 52 57 58 56 50 57 74 81 85 85 87 90 93 91 88 85 85 85 84 83 76 56 36
89 91 86 82 79 78 74 73 72 73 67 61 64 65 68 64 62 55 57 53 50 48 52 55 58 57 57 57 61 59 56 54 53 58 53 61 77 91 96 95 94 90 89 89 89 86 81 79 76 73 73 58 39 32
89 88 86 85 82 77 76 76 71 69 69 68 69 73 69 70 68 64 59 54 50 54 55 55 51 55 54 56 59 61 61 56 59 58 65 80 90 97 97 98 97 94 90 87 84 79 75 74 73 72 60 42 34 28
88 83 80 76 77 76 78 74 73 73 73 76 72 76 77 78 71 67 58 53 52 52 51 51 52 52 51 53 53 55 62 59 53 66 75 80 91 97 97 97 97 94 93 95 92 85 80 76 72 63 42 37 31 28
88 84 79 71 69 71 74 76 73 73 76 78 78 82 82 80 76 69 63 61 57 55 55 55 55 56 57 56 56 57 56 60 63 70 75 75 88 98 97 97 97 96 96 96 94 90 86 82 71 47 38 34 29 28
86 89 88 78 74 61 72 77 76 78 81 84 88 86 85 81 79 70 66 63 58 60 60 57 57 62 60 62 64 61 64 68 70 69 71 74 84 94 97 98 97 98 97 97 94 88 84 77 54 39 33 30 28 26
73 84 83 79 76 71 72 77 77 85 88 91 90 88 86 84 81 74 68 65 62 62 60 59 57 62 66 69 68 69 66 71 72 73 77 78 82 86 89 95 97 96 91 89 86 83 75 57 41 34 33 32 28 28
64 67 71 74 77 73 74 80 80 89 92 93 91 89 86 84 82 78 71 66 63 60 61 60 61 62 64 68 74 73 71 75 82 81 79 82 84 83 85 87 89 92 90 88 87 83 79 62 46 40 40 40 40 37
53 49 46 52 65 65 70 80 81 83 88 90 90 88 87 86 80 75 71 69 63 62 59 58 59 62 61 63 65 70 73 73 79 81 84 82 82 82 82 82 82 82 83 84 84 83 81 75 67 59 52 47 48 47
48 46 41 36 40 49 57 66 73 79 80 84 86 87 85 83 82 77 72 69 66 63 60 59 57 56 56 56 61 64 66 68 71 81 85 85 84 83 81 81 79 79 78 79 78 76 74 72 70 71 70 68 68 64
52 48 44 39 37 39 46 50 56 62 67 72 73 76 80 78 76 75 74 73 71 67 63 59 58 57 58 57 57 63 64 66 67 68 71 74 77 78 78 77 76 75 76 76 77 77 76 75 73 75 79 81 81 80
52 48 44 41 39 42 51 47 51 51 55 63 67 67 72 77 78 74 73 70 72 65 62 58 57 58 58 58 58 57 58 61 65 68 68 66 68 71 74 75 75 75 74 74 77 80 80 78 80 83 86 87 89 89
52 50 47 44 44 49 50 52 50 51 50 53 60 69 69 69 68 69 70 70 73 66 63 61 58 57 60 62 62 59 57 56 56 56 60 65 66 64 67 71 73 74 75 74 75 78 80 82 86 90 94 97 98 93
54 50 49 49 46 48 54 56 54 50 51 53 57 60 65 68 69 69 68 68 71 64 62 61 61 62 61 61 61 61 62 62 61 58 55 55 58 63 66 68 71 73 75 76 77 78 82 88 92 95 97 98 96 82
54 54 51 51 52 50 56 61 61 60 56 54 54 52 52 52 54 48 51 62 67 67 65 62 61 61 62 63 64 64 62 61 61 61 60 59 60 62 65 68 70 72 74 77 78 83 90 94 95 96 97 95 80 68
53 54 56 56 65 58 57 61 63 66 66 63 60 64 66 66 59 53 50 54 62 68 68 65 64 63 65 67 66 64 62 62 64 68 68 68 68 69 72 73 74 74 76 79 86 91 94 95 94 94 88 79 70 63
56 58 65 73 74 75 74 70 65 60 64 69 74 81 73 78 74 72 71 65 60 61 60 60 64 70 71 70 66 64 64 68 73 75 77 78 79 79 79 79 79 80 83 88 91 92 91 91 89 84 77 70 63 61
60 60 66 76 82 86 85 82 77 72 72 76 80 81 80 80 80 77 74 74 77 76 78 78 78 75 72 72 71 71 73 79 82 83 85 88 88 88 87 86 87 90 92 92 90 89 87 85 82 76 69 65 63 61
69 69 77 82 84 84 85 86 88 85 82 83 84 86 90 93 93 94 92 89 87 86 84 81 77 75 75 74 75 76 79 85 89 89 92 92 91 90 89 89 92 93 93 89 87 81 79 77 73 69 64 61 59 58
83 83 84 83 83 83 83 85 88 89 88 86 85 86 87 89 89 90 89 87 84 82 81 80 80 79 80 80 79 81 84 88 91 92 94 94 93 92 92 91 92 88 81 79 77 75 72 70 66 63 61 60 57 55
91 91 91 92 93 90 89 89 90 89 88 88 88 85 83 82 82 79 82 80 80 82 84 83 83 83 83 83 86 89 90 92 94 95 95 95 94 94 94 91 86 79 71 72 73 72 70 66 63 61 59 57 54 50
95 96 93 92 93 93 95 94 88 84 82 81 80 80 79 78 76 74 75 75 77 79 79 80 81 82 84 84 86 88 92 95 98 98 97 96 96 94 92 88 80 75 71 73 71 69 67 62 61 60 58 53 49 45

GFSWCAN_prec_cthk_117.txt.gz
RH
98 97 85 40 34 40 46 49 55 57 49 51 52 58 53 58 58 66 58 78 97 84 93 93 89 84 79 77 75 68 64 56 47 56 66 76 79 81 72 73 74 79 90 92 83 90 91 83 83 87 92 89 87 85
98 98 96 62 48 36 41 48 53 56 58 61 57 53 54 56 62 70 80 90 94 93 93 85 84 82 78 72 67 59 48 39 39 50 70 84 68 71 70 72 68 79 83 93 86 90 89 88 87 82 87 89 83 81
98 98 98 95 77 67 66 67 71 75 76 63 63 66 72 86 84 92 97 90 84 83 86 81 81 73 67 63 51 44 40 42 43 55 71 66 68 64 68 69 70 72 81 85 86 85 88 88 85 79 89 86 80 78
98 98 98 98 95 98 96 90 92 88 78 89 93 95 97 96 92 86 81 79 71 74 82 81 73 66 55 44 35 39 40 36 43 48 57 64 68 67 73 71 65 73 79 86 89 89 89 88 88 84 91 78 78 76
97 98 98 98 98 98 98 98 98 98 98 97 94 92 90 86 79 71 70 69 62 58 68 74 59 51 42 37 37 37 40 43 48 53 55 58 62 69 73 72 68 67 77 88 96 85 88 93 91 88 82 78 77 76
96 97 97 96 95 94 94 92 92 91 89 85 81 78 74 73 69 61 60 64 55 49 50 60 56 45 39 36 35 36 42 44 45 51 49 51 53 57 68 76 80 73 73 83 92 88 88 90 90 82 78 77 77 76
86 88 86 84 83 80 76 72 67 63 63 67 71 68 64 61 59 55 57 56 53 50 50 51 49 46 44 38 36 32 32 34 42 46 49 52 52 54 63 71 79 73 74 82 88 89 91 89 84 77 76 78 77 76
75 74 74 72 67 65 66 65 63 61 56 54 54 56 53 51 50 52 48 47 43 45 39 44 50 43 41 43 39 36 34 32 30 39 39 47 52 54 61 70 76 77 79 82 87 88 83 87 79 77 78 78 77 75
77 65 62 64 65 66 63 60 57 55 50 47 46 48 53 54 55 54 41 35 31 39 38 41 44 49 42 43 45 36 41 41 32 40 41 39 47 52 61 62 74 76 78 86 85 88 88 82 82 81 80 77 76 76
63 61 68 66 55 51 50 53 51 46 47 48 49 50 55 52 43 39 39 30 30 39 40 44 44 40 40 43 44 42 39 40 45 46 45 44 47 46 46 59 68 77 81 90 87 90 91 86 84 84 81 79 78 78
72 59 53 51 53 58 59 57 53 51 52 55 58 61 51 47 48 45 40 38 39 46 46 48 45 46 46 51 50 47 49 46 46 57 49 49 47 45 45 58 73 79 82 91 90 93 95 91 87 86 84 82 80 74
72 65 49 46 54 62 65 61 55 53 53 58 57 60 55 56 54 50 48 42 44 48 47 48 49 46 49 51 53 49 48 46 60 53 50 52 56 49 57 69 77 80 83 94 94 93 95 92 90 90 90 87 82 67
75 72 68 55 56 60 66 67 61 60 58 56 58 62 65 62 62 57 57 50 48 49 50 50 55 52 52 57 54 54 53 57 52 58 54 62 53 61 78 86 85 86 86 94 96 95 94 93 90 91 91 87 74 52
84 80 75 71 68 70 73 74 70 56 58 59 65 70 72 69 65 62 63 53 49 50 52 55 52 54 54 56 56 58 58 52 55 56 56 64 74 86 95 97 94 92 89 94 96 96 93 92 91 87 82 74 57 41
83 80 74 72 72 73 71 67 68 59 62 67 70 74 78 73 67 63 57 54 56 56 54 51 49 49 50 52 53 53 58 58 49 62 73 73 80 92 96 97 96 94 90 89 91 91 88 87 86 80 71 58 45 35
74 70 71 70 71 73 69 66 65 65 69 73 74 79 81 72 68 65 63 60 57 54 52 49 48 48 51 50 50 53 52 57 69 65 69 69 77 93 96 97 97 95 93 94 91 85 82 79 78 73 63 49 38 33
74 74 71 69 65 67 66 67 67 71 76 78 84 85 83 73 69 66 63 57 56 56 57 51 55 56 52 55 56 54 64 71 70 63 60 66 75 93 94 97 97 97 96 97 95 92 88 85 80 72 57 41 37 34
79 70 70 64 64 70 66 69 75 80 82 86 87 86 82 75 72 66 63 61 58 56 55 54 52 58 62 60 66 72 63 61 64 67 67 70 78 88 94 97 97 97 97 98 97 94 89 85 80 71 47 36 36 30
72 72 67 63 60 70 71 76 83 86 89 88 87 86 82 79 76 69 65 61 59 57 56 54 58 59 65 71 69 64 64 66 71 72 74 78 81 85 90 94 97 97 97 97 95 91 89 83 72 57 40 37 38 36
57 64 66 68 64 68 73 81 83 85 87 89 87 85 81 79 77 72 68 62 58 56 55 57 61 62 62 61 66 69 69 68 74 79 79 80 82 83 85 88 91 94 95 94 94 94 92 88 81 69 55 51 51 49
47 44 50 66 68 69 77 78 80 85 85 86 85 85 82 79 77 74 70 63 61 61 59 57 55 52 51 52 56 60 60 66 70 78 84 88 86 87 85 85 84 84 85 86 87 87 86 84 82 79 75 75 73 70
38 33 30 35 50 56 64 70 75 79 82 83 83 81 82 80 79 76 73 68 63 63 60 59 56 54 53 53 55 57 59 62 64 66 69 76 80 81 82 82 82 82 80 79 82 84 84 82 81 81 80 79 79 80
36 33 32 32 33 41 49 53 57 58 65 71 73 77 79 78 77 75 76 72 70 61 58 56 54 54 54 54 56 57 55 59 62 65 67 69 69 71 74 78 81 81 81 80 79 78 79 81 83 84 84 84 86 91
37 35 35 38 40 45 44 46 47 47 51 56 59 64 67 73 75 76 74 71 72 65 60 56 58 56 55 56 60 60 59 57 57 57 58 61 65 68 69 71 73 76 79 80 80 80 81 82 82 82 86 90 95 97
42 41 42 42 43 47 50 49 48 47 49 50 54 59 63 64 63 63 62 63 65 65 63 61 63 61 61 63 62 61 60 62 64 62 61 62 60 59 62 66 68 70 74 78 79 80 82 84 84 85 88 96 99 98
49 45 46 45 45 46 50 52 51 50 47 47 48 49 52 55 58 57 55 61 60 63 66 65 64 65 63 62 64 63 64 64 63 63 64 64 64 64 62 62 64 69 74 76 77 79 82 85 86 90 98 98 98 97
45 49 48 49 51 47 50 55 56 56 54 53 51 52 52 53 52 52 51 49 51 56 60 65 65 66 67 67 66 65 67 66 65 64 65 68 70 70 72 72 73 74 76 79 80 81 84 86 90 98 97 95 94 86
49 50 58 61 61 60 60 57 54 53 61 62 61 67 67 66 75 70 68 63 60 57 59 64 68 68 69 66 67 71 70 68 67 68 71 74 77 78 81 82 83 84 85 86 86 85 87 93 95 94 93 91 85 78
51 52 61 68 71 73 72 71 69 65 63 65 71 77 75 70 71 74 73 70 70 68 66 66 67 69 75 78 77 74 74 74 74 77 82 86 86 87 90 90 90 91 91 90 91 94 96 96 93 91 88 82 72 67
58 56 62 68 72 75 82 79 79 75 71 72 74 76 78 79 79 80 81 83 84 86 88 87 86 86 84 80 77 76 77 78 80 82 86 91 92 92 93 93 93 92 92 94 94 95 95 88 85 83 77 70 64 62
72 72 76 78 80 79 76 73 76 81 83 83 82 82 84 84 84 84 87 88 89 89 88 88 84 82 81 81 82 83 84 85 87 89 89 93 95 95 95 95 95 96 96 96 94 88 83 77 75 71 67 64 61 60
86 88 88 87 88 86 85 85 84 83 84 83 85 82 82 83 83 82 82 82 84 84 83 83 83 85 85 85 88 90 91 92 94 95 95 96 97 97 97 97 97 97 93 87 80 76 72 70 69 67 62 62 61 56
93 93 92 89 87 88 90 91 88 85 84 82 80 80 79 79 78 78 77 77 76 77 76 77 79 82 84 84 86 87 89 91 92 93 95 98 98 98 98 98 94 90 82 76 73 70 69 69 63 63 63 59 54 50

GFSWCAN_prec_cthk_120.txt.gz
RH
92 74 57 52 76 69 80 95 98 98 92 72 68 62 56 47 50 62 75 57 62 57 72 71 64 67 74 78 88 86 90 85 76 73 69 56 63 92 84 82 85 81 80 82 84 92 88 81 82 84 88 87 88 90
80 58 38 40 75 62 75 97 96 98 97 75 70 66 61 54 59 72 67 71 66 67 64 79 68 75 85 90 88 85 78 74 65 63 49 67 94 83 79 80 79 88 81 92 96 93 90 87 90 86 84 85 90 89
94 58 36 41 56 77 92 93 97 97 87 83 67 63 55 60 64 70 69 67 62 95 80 90 93 92 92 88 86 80 75 68 56 41 56 90 88 75 66 63 71 71 70 75 78 82 84 87 88 88 83 85 89 84
97 75 47 41 44 50 61 74 77 73 68 64 59 62 63 64 73 68 66 83 57 82 98 96 95 92 89 84 78 73 70 57 48 44 67 74 78 63 65 71 79 72 67 68 75 82 85 84 87 89 83 86 87 81
98 92 81 63 48 48 54 55 53 54 58 61 64 68 67 69 68 75 82 90 93 89 94 95 92 88 82 76 71 63 51 41 40 49 49 59 58 62 63 66 69 68 69 66 76 82 84 87 90 90 85 90 85 79
98 98 97 92 95 86 79 61 57 62 58 68 78 74 64 66 63 75 91 97 93 87 90 93 89 81 78 70 57 47 40 50 46 57 67 52 51 57 64 65 72 77 73 68 75 83 88 90 94 94 88 92 82 78
97 96 97 97 97 96 90 89 89 85 90 84 84 88 91 97 96 90 89 86 86 78 80 85 86 80 68 60 47 44 43 43 48 56 51 45 50 47 52 54 60 67 70 69 73 84 93 95 96 95 92 88 81 78
92 89 88 88 91 95 96 97 97 97 97 96 96 96 95 91 84 81 80 74 71 67 72 78 78 70 54 47 42 36 35 35 42 49 48 47 48 49 49 53 58 59 69 75 78 83 91 94 96 95 91 82 78 75
82 83 78 77 79 83 88 92 93 93 93 91 90 88 85 81 76 76 74 75 71 66 66 63 62 56 47 46 42 43 40 44 37 40 48 50 48 50 48 50 56 62 70 78 80 85 91 94 96 95 91 83 80 76
77 81 81 77 78 76 75 75 76 78 79 79 76 69 71 68 63 60 56 52 53 63 59 46 41 42 45 42 41 40 41 47 38 38 47 44 42 46 45 41 48 60 68 78 79 88 90 94 94 96 88 83 82 78
63 65 67 68 69 64 59 62 61 64 64 60 60 63 65 59 52 47 50 49 49 48 53 57 39 41 41 49 47 47 44 45 44 54 52 50 45 43 41 39 45 60 69 78 85 92 93 96 95 93 90 88 84 81
50 52 56 58 56 55 52 51 55 56 55 55 52 50 51 53 49 50 51 50 51 50 46 49 49 47 50 56 49 47 44 43 51 57 58 49 62 53 47 46 52 66 75 80 88 94 97 97 97 93 91 90 86 83
49 59 61 59 57 54 53 55 55 55 54 51 50 53 57 58 57 52 52 50 52 49 48 51 57 53 51 53 49 49 48 52 55 55 54 65 60 53 49 55 72 78 78 83 89 96 97 97 97 97 94 92 89 83
55 57 62 67 68 61 55 56 55 54 57 59 62 67 69 68 64 67 61 50 47 47 53 54 50 51 54 51 54 53 57 50 54 55 56 61 55 57 71 82 96 93 88 87 92 97 97 97 97 97 95 95 91 80
66 65 68 68 69 70 60 55 53 54 59 67 69 77 80 72 67 65 58 55 54 52 53 52 51 49 49 51 52 49 54 53 51 63 78 70 64 72 85 92 97 96 93 92 96 97 97 97 97 97 94 91 85 70
69 66 65 68 67 64 65 59 53 55 64 71 80 80 76 70 68 68 67 64 61 59 52 43 45 45 50 46 47 51 52 59 73 64 65 66 65 72 91 95 96 96 93 93 93 96 94 93 94 93 90 84 68 53
66 68 68 69 66 63 60 59 56 62 70 78 84 82 77 74 73 73 70 65 63 60 53 49 48 50 47 50 49 50 64 68 67 65 61 59 64 73 89 94 97 96 94 95 94 89 86 87 88 88 84 73 58 44
69 64 62 63 61 62 62 66 69 75 83 84 85 82 76 74 73 71 69 64 54 51 49 49 49 52 61 58 61 65 60 57 59 59 61 65 68 75 86 93 95 97 97 97 97 95 92 88 86 84 77 62 49 41
62 62 57 62 60 63 67 73 75 82 85 87 87 84 77 74 71 65 62 59 55 50 51 53 57 62 67 72 67 58 56 61 63 64 67 70 76 80 86 92 96 97 98 97 97 97 93 90 86 82 75 65 48 40
63 59 55 59 62 64 71 79 78 80 84 86 85 80 76 75 71 65 59 54 52 54 54 59 68 70 69 65 64 64 60 62 67 68 69 73 77 82 87 91 94 97 97 98 97 97 97 95 90 81 68 56 48 43
54 57 61 59 59 64 74 78 80 83 84 84 83 81 78 76 74 70 62 57 58 58 60 59 56 55 53 53 54 56 58 63 65 68 75 79 87 87 89 88 88 90 90 91 91 92 94 92 89 88 82 80 78 74
38 45 61 57 64 68 73 78 80 81 82 83 82 82 80 79 76 71 67 64 66 66 64 62 56 55 52 52 52 53 56 58 59 62 64 66 75 79 79 84 86 85 85 85 82 82 83 84 83 81 78 78 80 78
28 27 35 44 46 51 67 69 70 73 77 79 79 79 80 78 76 72 72 69 69 66 60 58 56 55 54 53 53 55 56 57 59 59 62 66 66 68 70 73 76 80 83 84 85 83 81 79 78 78 78 81 81 82
28 27 29 33 38 44 48 53 51 55 61 66 69 73 77 77 76 76 78 77 74 65 62 60 59 57 56 57 60 58 59 59 59 57 58 59 60 61 65 67 68 70 74 76 79 82 84 83 82 83 84 83 83 84
32 34 38 38 41 44 44 45 46 44 49 53 55 58 60 64 69 72 73 78 74 70 67 62 60 60 60 62 63 61 59 60 62 63 64 62 61 62 62 62 63 66 69 71 74 77 82 84 84 85 85 85 88 90
41 39 44 43 43 45 45 44 44 48 46 47 49 52 54 56 59 63 63 65 62 60 61 63 64 66 66 66 64 63 62 62 63 64 65 64 65 65 66 68 69 69 68 69 70 75 80 82 83 84 84 86 89 91
47 48 47 46 47 46 49 51 48 48 46 46 45 45 45 47 49 56 53 50 52 57 59 60 65 69 70 69 69 70 68 66 65 67 67 67 67 68 71 73 75 77 78 79 80 81 82 85 86 86 87 87 90 96
47 48 54 52 51 49 50 49 48 50 56 58 53 51 55 57 73 70 63 56 54 53 54 56 58 64 70 74 75 73 68 68 71 72 71 69 68 72 77 80 83 85 88 90 91 93 93 92 91 90 92 96 98 95
47 48 55 59 61 60 59 60 63 62 62 67 66 75 73 67 72 74 77 71 69 69 71 69 65 67 67 68 68 73 78 79 77 76 76 76 78 80 86 90 91 92 95 96 96 95 94 94 95 97 98 97 91 82
53 52 56 59 60 64 74 74 72 71 67 64 65 69 72 73 73 75 77 79 81 83 83 83 85 82 79 84 88 88 84 81 80 80 79 81 82 85 89 94 95 97 97 97 97 96 97 98 98 98 96 85 74 70
61 59 61 66 71 74 72 70 68 68 71 74 73 72 75 79 79 80 82 85 89 92 93 94 95 94 93 89 87 86 86 86 86 86 87 90 91 92 93 95 97 97 98 98 98 98 98 97 94 87 77 69 69 65
80 80 81 80 82 80 78 78 80 80 80 79 81 81 82 82 82 83 86 86 87 88 90 91 89 89 88 87 88 89 89 89 91 91 93 94 94 95 97 98 98 98 98 98 98 94 90 85 77 69 68 65 63 63
89 89 90 90 89 87 86 86 86 86 85 83 82 81 80 80 79 80 82 80 79 78 78 79 81 82 82 82 84 87 88 89 90 90 91 91 93 94 95 96 98 98 95 90 86 82 78 71 69 65 64 64 60 55

GFSWCAN_prec_cthk_123.txt.gz
RH
85 80 75 74 77 77 98 98 98 98 98 71 84 92 71 66 63 65 65 70 81 85 73 60 68 55 52 54 55 70 69 73 77 89 89 82 79 68 76 93 85 86 91 80 78 93 85 73 77 86 86 84 83 86
80 61 51 54 61 62 82 98 98 98 97 69 75 82 68 65 64 65 72 77 78 99 84 81 95 74 67 61 56 66 80 78 88 88 82 79 83 83 82 97 87 89 79 82 82 79 83 84 87 84 84 85 84 86
54 63 76 72 83 82 92 97 97 93 82 65 73 73 62 66 60 57 66 88 93 96 82 85 85 71 69 71 66 83 83 84 84 80 82 81 82 68 97 92 91 85 80 80 82 81 87 89 86 85 87 86 83 89
53 76 85 70 71 80 94 96 94 89 86 70 72 71 61 60 55 61 69 95 99 75 88 84 76 87 93 74 81 81 84 85 79 73 75 75 85 80 93 89 90 78 74 74 71 69 73 72 78 84 87 88 84 90
49 60 73 86 88 89 94 94 94 87 79 72 72 68 58 55 58 59 76 98 95 73 72 72 79 93 93 91 91 87 86 82 76 73 67 61 64 79 84 79 77 63 69 70 66 60 64 76 83 85 85 89 86 88
72 51 56 66 76 86 91 91 83 80 73 73 73 69 63 57 66 71 97 98 71 85 87 95 96 96 97 94 91 84 81 75 70 62 52 48 52 57 62 68 61 63 70 68 65 64 70 76 88 89 92 92 89 90
89 64 55 55 57 61 64 66 70 71 69 66 66 67 64 64 66 86 74 57 71 75 79 84 96 96 92 90 84 78 68 71 65 67 64 61 54 50 51 50 50 52 56 60 68 68 74 78 90 93 95 95 93 92
94 84 78 72 57 54 57 61 61 65 63 62 68 72 77 83 88 88 81 73 82 90 91 95 96 93 87 84 81 74 71 65 57 60 55 55 49 43 45 45 47 48 51 53 58 71 74 81 95 97 97 97 93 91
96 94 94 86 89 86 75 75 82 81 67 81 88 90 89 83 81 87 88 90 91 87 88 88 90 95 84 79 69 62 45 53 45 50 46 47 58 54 42 41 43 48 51 57 62 73 82 86 96 97 97 96 93 85
95 97 97 97 98 98 97 97 90 84 85 88 89 87 94 97 96 95 95 89 83 85 81 85 82 85 79 71 59 48 44 46 44 42 42 50 50 46 48 42 37 38 47 57 65 79 86 90 96 97 97 95 92 82
87 87 92 96 97 98 99 99 98 98 96 91 86 88 92 93 89 82 81 77 79 83 80 76 68 62 57 49 48 38 47 48 50 51 47 52 51 46 45 42 37 39 43 59 68 78 85 93 96 97 97 97 95 90
73 72 79 83 87 89 92 92 90 87 78 80 86 89 86 74 67 65 76 79 70 77 81 66 52 50 53 49 48 45 43 45 49 52 56 55 55 57 55 48 44 44 50 64 73 81 91 97 97 97 97 97 95 93
61 63 60 62 68 74 77 79 78 72 71 70 66 66 67 65 66 62 71 75 70 65 52 49 57 54 55 46 50 51 46 48 47 56 54 56 57 56 51 47 50 59 72 76 78 86 95 97 97 97 97 97 96 96
62 59 55 57 62 62 63 62 60 54 53 57 62 68 68 66 69 76 63 56 51 49 50 52 51 53 52 50 54 46 54 53 56 57 55 60 56 53 55 61 75 86 90 92 89 90 97 97 97 97 97 97 97 97
69 68 61 55 59 61 61 58 52 50 53 61 70 78 78 79 78 70 55 50 54 56 54 52 50 49 50 51 50 49 52 51 55 61 64 65 63 58 62 75 86 93 96 97 94 95 97 98 97 97 97 97 97 97
68 70 70 68 62 57 56 56 56 59 69 76 79 81 80 78 74 71 65 64 62 59 54 48 49 48 50 49 52 53 54 60 67 60 58 61 62 59 65 79 89 93 94 95 97 97 98 97 97 97 97 97 97 92
63 67 67 68 63 60 54 53 60 68 76 82 86 84 82 83 82 80 73 67 62 55 53 48 47 49 48 50 51 58 59 62 58 58 59 58 58 60 70 78 90 93 94 94 96 97 97 98 98 97 97 97 92 80
64 64 64 64 63 63 59 59 64 75 85 86 82 84 82 78 79 77 71 65 59 52 45 46 44 51 59 59 56 55 56 54 53 54 55 59 64 69 72 77 89 94 93 93 95 95 92 91 90 92 93 91 82 70
59 58 59 59 59 59 65 70 71 82 85 82 81 82 80 77 74 71 62 56 49 48 50 54 58 64 62 63 61 59 55 55 55 54 59 65 68 74 79 82 88 96 96 95 97 96 95 94 91 89 87 82 73 60
54 54 57 55 56 60 69 76 76 80 85 84 80 76 74 70 68 61 56 54 53 55 58 62 65 64 64 61 58 54 54 57 57 58 62 64 68 74 79 85 91 95 97 98 97 97 97 96 93 89 84 79 72 61
50 50 55 55 56 62 72 75 75 80 81 83 81 77 75 71 69 63 60 60 59 62 62 63 65 60 57 56 54 52 55 57 59 62 63 68 73 76 81 87 89 90 92 94 95 96 97 97 97 95 90 82 74 66
49 52 49 50 57 64 73 77 78 79 81 80 79 78 77 76 74 69 68 66 68 69 68 66 60 56 54 52 53 53 54 55 54 56 58 58 61 67 72 76 82 86 87 88 87 86 86 88 89 88 85 85 83 79
34 45 51 54 55 65 74 74 74 78 80 80 81 81 81 78 74 71 72 74 76 73 70 65 65 61 56 54 54 54 54 54 52 53 56 57 60 63 64 66 68 71 74 78 83 86 87 87 85 83 82 84 82 80
22 27 35 40 41 52 55 59 61 64 69 75 77 77 78 75 75 78 84 81 76 73 71 69 68 62 61 60 57 58 57 57 56 56 58 58 59 60 62 63 64 66 68 70 73 76 79 82 82 83 85 86 86 86
24 33 33 35 38 43 48 50 52 53 61 63 68 72 69 70 77 80 84 87 83 79 73 70 67 63 62 63 64 61 59 59 59 59 61 62 63 64 64 64 64 65 66 68 68 70 74 76 78 80 84 87 89 90
34 37 43 40 43 42 42 43 44 46 48 50 54 55 56 63 66 73 75 76 74 72 72 71 68 66 67 68 67 66 63 61 63 63 63 63 64 65 66 66 68 71 72 74 75 75 74 74 74 76 81 87 88 89
44 46 40 43 43 44 45 45 44 44 43 45 46 42 46 52 57 62 61 58 58 59 60 61 62 65 70 72 72 70 68 69 71 69 67 66 68 69 70 70 72 74 76 80 83 85 86 88 90 91 92 92 92 92
46 53 49 46 45 47 47 46 46 47 54 52 45 41 45 53 62 62 59 57 54 53 54 55 57 60 62 66 70 74 76 76 75 72 70 73 74 74 73 75 79 83 87 90 91 93 96 97 97 97 98 97 98 98
44 49 49 52 49 48 49 56 61 60 61 63 61 66 65 61 64 67 69 70 73 73 70 69 67 66 65 67 69 71 72 73 74 77 78 78 78 78 78 81 85 88 93 97 98 98 98 98 98 98 98 99 99 99
49 50 57 54 55 65 69 69 70 68 65 60 60 65 71 74 73 72 75 78 78 80 80 80 81 82 83 79 74 74 81 88 88 86 84 81 81 83 86 88 91 93 95 97 97 98 98 98 98 98 98 99 98 94
57 54 56 61 70 72 72 71 70 70 69 69 69 68 70 70 71 76 80 81 83 85 88 90 91 91 93 94 94 94 92 90 90 88 88 89 90 91 92 93 95 96 95 96 98 98 98 98 98 98 97 92 80 72
72 74 76 75 78 78 76 76 77 78 78 79 80 79 79 81 84 85 87 87 89 89 91 91 92 92 93 92 93 92 91 90 91 92 92 93 93 92 92 92 92 93 94 94 97 98 98 98 93 89 78 72 66 65
89 88 87 86 86 85 84 82 82 83 85 82 84 85 83 81 80 83 85 85 83 83 84 84 84 85 85 87 88 89 87 86 88 89 91 93 93 93 93 95 95 93 93 94 95 95 90 84 77 73 67 67 65 60